This is the latest recevied weather packets stored in our database for station/object N4DBJ. If no packets are shown the sender has not sent any weather packets the latest 10 day(s).
| Time | Temp. | Humidity | Pressure | Rain* | Wind** | Luminosity | Snow |
|---|---|---|---|---|---|---|---|
| 1777812743 | 5° C | 99% | 1019.1 hPa | 0 mm | - | 51 W/m² | - |
| 1777812439 | 4.44° C | 99% | 1019.1 hPa | 0 mm | - | 49 W/m² | - |
| 1777812137 | 3.89° C | 99% | 1019.3 hPa | 0 mm | - | 47 W/m² | - |
| 1777811835 | 3.33° C | 99% | 1019.4 hPa | 0 mm | - | 46 W/m² | - |
| 1777811533 | 2.78° C | 99% | 1019.1 hPa | 0 mm | - | 45 W/m² | - |
| 1777811229 | 2.22° C | 99% | 1019.1 hPa | 0 mm | - | 43 W/m² | - |
| 1777810926 | 1.67° C | 99% | 1019.2 hPa | 0 mm | - | 42 W/m² | - |
| 1777810622 | 1.67° C | 99% | 1019.2 hPa | 0 mm | - | 40 W/m² | - |
| 1777810320 | 1.67° C | 99% | 1019.2 hPa | 0 mm | - | 39 W/m² | - |
| 1777810015 | 1.67° C | 99% | 1019 hPa | 0 mm | - | 36 W/m² | - |
| 1777809713 | 1.11° C | 99% | 1019 hPa | 0 mm | - | 35 W/m² | - |
| 1777809410 | 0.56° C | 99% | 1019.1 hPa | 0 mm | - | 34 W/m² | - |
| 1777809108 | 0.56° C | 99% | 1018.8 hPa | 0 mm | - | 32 W/m² | - |
| 1777808806 | 0.56° C | 99% | 1018.7 hPa | 0 mm | - | 31 W/m² | - |
| 1777808502 | 0.56° C | 99% | 1018.7 hPa | 0 mm | - | 28 W/m² | - |
| 1777808200 | 0.56° C | 99% | 1018.7 hPa | 0 mm | - | 25 W/m² | - |
| 1777807898 | 0° C | 99% | 1018.6 hPa | 0 mm | - | 23 W/m² | - |
| 1777807596 | 0° C | 99% | 1018.7 hPa | 0 mm | - | 19 W/m² | - |
| 1777807293 | 0° C | 99% | 1018.6 hPa | 0 mm | - | 16 W/m² | - |
| 1777806989 | 0° C | 99% | 1018.5 hPa | 0 mm | - | 13 W/m² | - |
| 1777806685 | 0° C | 99% | 1018.2 hPa | 0 mm | - | 10 W/m² | - |
| 1777806381 | 0° C | 99% | 1018.3 hPa | 0 mm | - | 7 W/m² | - |
| 1777806079 | 0° C | 99% | 1018.4 hPa | 0 mm | - | 5 W/m² | - |
| 1777805775 | 0° C | 99% | 1018.4 hPa | 0 mm | - | 3 W/m² | - |
| 1777805472 | 0° C | 99% | 1018.4 hPa | 0 mm | - | 1 W/m² | - |
* Rain latest hour (hover to see other rain measurements)
** Current wind speed in m/s (hover to see current wind gust speed)